RRR9999 BIKF-BIKF

Flight info

Callsign RRR9999
Flight time 0h 6m
Altitude 40000
Route SORIR3A SORIR DCT H6430 DCT BIRNA BIRNA3N
Aircraft A332/H-SDE3GHIJ2J3J5M1RVWXY/LB2D1

Departure

Time 2026-05-03 23:23
Airport Keflavik International Airport (BIKF)

Arrival

Time 2026-05-03 23:30
Airport Keflavik International Airport (BIKF)
Time Latitude Longitude Altitude Speed Heading
2026-05-03 21:42 64.26480 -23.97801 23222 ft 263 kts 294°
2026-05-03 21:43 64.27253 -24.01712 24043 ft 266 kts 294°
2026-05-03 21:43 64.28021 -24.05609 24783 ft 269 kts 294°
2026-05-03 21:43 64.28802 -24.09575 25518 ft 273 kts 293°
2026-05-03 21:43 64.29589 -24.13580 26239 ft 276 kts 293°
2026-05-03 21:44 64.30376 -24.17590 26965 ft 280 kts 293°
2026-05-03 21:44 64.31184 -24.21719 27692 ft 284 kts 292°
2026-05-03 21:44 64.31998 -24.25886 28418 ft 288 kts 292°
2026-05-03 21:44 64.32825 -24.30131 29133 ft 292 kts 292°
2026-05-03 21:45 64.33663 -24.34441 29854 ft 296 kts 292°
2026-05-03 21:45 64.34508 -24.38795 30500 ft 300 kts 292°
2026-05-03 21:45 64.35364 -24.43220 31138 ft 304 kts 292°
2026-05-03 21:45 64.36229 -24.47700 31779 ft 308 kts 292°
2026-05-03 21:46 64.37105 -24.52251 32412 ft 312 kts 292°
2026-05-03 21:46 64.37995 -24.56875 33038 ft 317 kts 292°
2026-05-03 21:46 64.38892 -24.61552 33716 ft 319 kts 292°
2026-05-03 21:46 64.39691 -24.66321 34417 ft 319 kts 288°
2026-05-03 21:47 64.40300 -24.71317 34851 ft 326 kts 284°
2026-05-03 21:47 64.40708 -24.76520 35311 ft 332 kts 279°
2026-05-03 21:47 64.40958 -24.81863 35767 ft 337 kts 278°
2026-05-03 21:47 64.41220 -24.87284 36226 ft 342 kts 278°
2026-05-03 21:48 64.41492 -24.92783 36679 ft 346 kts 278°
2026-05-03 21:48 64.41765 -24.98350 37143 ft 351 kts 278°
2026-05-03 21:48 64.42037 -25.04007 37590 ft 355 kts 278°
2026-05-03 21:48 64.42307 -25.09716 38035 ft 359 kts 278°
2026-05-03 21:49 64.42577 -25.15494 38492 ft 363 kts 278°
2026-05-03 21:49 64.42844 -25.21283 38881 ft 367 kts 278°
2026-05-03 21:49 64.43113 -25.27154 39322 ft 367 kts 278°
2026-05-03 21:49 64.43380 -25.33048 39734 ft 369 kts 278°
2026-05-03 21:50 64.43908 -25.44874 39908 ft 366 kts 277°
2026-05-03 21:50 64.44424 -25.56605 40049 ft 368 kts 277°
2026-05-03 21:51 64.44932 -25.68397 40057 ft 367 kts 277°
2026-05-03 21:51 64.45430 -25.80169 40055 ft 367 kts 277°
2026-05-03 21:52 64.45918 -25.91942 40058 ft 367 kts 277°
2026-05-03 21:52 64.46412 -26.04036 40059 ft 389 kts 277°
2026-05-03 21:53 64.46665 -26.10314 40062 ft 403 kts 277°
2026-05-03 21:53 64.46926 -26.16899 40063 ft 416 kts 277°
2026-05-03 21:53 64.47192 -26.23686 40063 ft 428 kts 277°
2026-05-03 21:53 64.47461 -26.30651 40060 ft 438 kts 276°
2026-05-03 21:54 64.48001 -26.44913 40066 ft 449 kts 276°
2026-05-03 21:54 64.48444 -26.56917 40067 ft 449 kts 276°
2026-05-03 21:55 64.48965 -26.71378 40068 ft 449 kts 276°
2026-05-03 21:55 64.49472 -26.85829 40074 ft 449 kts 276°
2026-05-03 21:56 64.49964 -27.00265 40076 ft 449 kts 276°
2026-05-03 21:56 64.50167 -27.14766 40079 ft 450 kts 272°
2026-05-03 21:57 64.50245 -27.29302 40076 ft 450 kts 272°
2026-05-03 21:57 64.50316 -27.43809 40081 ft 449 kts 272°
2026-05-03 21:58 64.50360 -27.58225 40083 ft 449 kts 272°
2026-05-03 21:58 64.50386 -27.72721 40086 ft 449 kts 272°
2026-05-03 21:59 64.50398 -27.87229 40089 ft 449 kts 272°
2026-05-03 21:59 64.50396 -28.01704 40089 ft 449 kts 272°
2026-05-03 22:00 64.50380 -28.16189 40087 ft 449 kts 271°
2026-05-03 22:00 64.50349 -28.30668 40091 ft 448 kts 271°
2026-05-03 22:01 64.50304 -28.45137 40089 ft 448 kts 271°
2026-05-03 22:01 64.50246 -28.59530 40089 ft 448 kts 271°
2026-05-03 22:02 64.48997 -28.73704 40104 ft 456 kts 251°
2026-05-03 22:02 64.45607 -28.86270 40089 ft 468 kts 232°
2026-05-03 22:03 64.40393 -28.95598 40097 ft 484 kts 212°
2026-05-03 22:03 64.37223 -28.98434 40100 ft 494 kts 200°
2026-05-03 22:03 64.33810 -28.99795 40098 ft 503 kts 188°
2026-05-03 22:04 64.26768 -28.99930 40095 ft 506 kts 185°
2026-05-03 22:04 64.19726 -28.99965 40101 ft 506 kts 185°
2026-05-03 22:05 64.12685 -28.98776 40099 ft 516 kts 170°
2026-05-03 22:05 64.09272 -28.96097 40101 ft 523 kts 159°
2026-05-03 22:05 64.06098 -28.91965 40100 ft 529 kts 147°
2026-05-03 22:06 64.03288 -28.86523 40098 ft 533 kts 136°
2026-05-03 22:06 64.00939 -28.79930 40099 ft 536 kts 124°
2026-05-03 22:06 63.99156 -28.72458 40100 ft 538 kts 112°
2026-05-03 22:06 63.98012 -28.64462 40095 ft 538 kts 101°
2026-05-03 22:07 63.97519 -28.55945 40100 ft 536 kts 90°
2026-05-03 22:07 63.97716 -28.47623 40098 ft 532 kts 78°
2026-05-03 22:07 63.99556 -28.31371 40098 ft 527 kts 66°
2026-05-03 22:08 64.02822 -28.16617 40093 ft 517 kts 49°
2026-05-03 22:08 64.05165 -28.10502 40096 ft 508 kts 37°
2026-05-03 22:08 64.07937 -28.05604 40096 ft 499 kts 26°
2026-05-03 22:09 64.11015 -28.02109 40097 ft 490 kts 14°
2026-05-03 22:09 64.14275 -28.00131 40096 ft 480 kts
2026-05-03 22:10 64.24149 -27.99910 40094 ft 473 kts 354°
2026-05-03 22:10 64.30740 -28.00016 40091 ft 473 kts 354°
2026-05-03 22:11 64.37334 -28.00021 40083 ft 474 kts 355°
2026-05-03 22:11 64.43891 -28.00011 40090 ft 474 kts 355°
2026-05-03 22:12 64.50497 -28.00006 40097 ft 474 kts 355°
2026-05-03 22:12 64.57103 -28.00003 40095 ft 475 kts 355°
2026-05-03 22:13 64.63716 -28.00002 40090 ft 475 kts 355°
2026-05-03 22:13 64.70335 -28.00001 40090 ft 475 kts 355°
2026-05-03 22:14 64.76959 -28.00001 40083 ft 475 kts 355°
2026-05-03 22:14 64.83534 -28.00000 40084 ft 475 kts 355°
2026-05-03 22:15 64.90147 -28.00000 40084 ft 475 kts 355°
2026-05-03 22:15 64.96753 -28.00265 40084 ft 471 kts 349°
2026-05-03 22:16 65.03097 -28.03345 40081 ft 463 kts 338°
2026-05-03 22:16 65.09067 -28.08879 40083 ft 460 kts 334°
2026-05-03 22:17 65.15016 -28.14534 40081 ft 460 kts 334°
2026-05-03 22:17 65.20942 -28.20256 40079 ft 460 kts 333°
2026-05-03 22:18 65.26866 -28.26044 40082 ft 460 kts 333°
2026-05-03 22:18 65.32789 -28.31865 40080 ft 460 kts 333°
2026-05-03 22:19 65.38718 -28.37721 40079 ft 460 kts 333°
2026-05-03 22:19 65.44639 -28.43598 40080 ft 460 kts 333°
2026-05-03 22:20 65.50570 -28.49514 40075 ft 461 kts 333°
2026-05-03 22:20 65.56450 -28.55408 40078 ft 461 kts 333°
2026-05-03 22:21 65.62367 -28.61368 40070 ft 461 kts 333°
2026-05-03 22:21 65.68285 -28.67360 40080 ft 461 kts 333°
2026-05-03 22:22 65.74205 -28.73382 40073 ft 460 kts 333°
2026-05-03 22:22 65.80116 -28.79427 40073 ft 460 kts 333°
2026-05-03 22:23 65.85634 -28.86985 40074 ft 452 kts 316°
2026-05-03 22:23 65.89644 -28.98533 40075 ft 447 kts 299°
2026-05-03 22:24 65.91860 -29.12678 40075 ft 447 kts 281°
2026-05-03 22:24 65.91925 -29.27894 40070 ft 452 kts 262°
2026-05-03 22:25 65.89723 -29.42427 40080 ft 463 kts 243°
2026-05-03 22:25 65.86426 -29.55947 40073 ft 462 kts 244°
2026-05-03 22:26 65.83134 -29.69453 40079 ft 462 kts 243°
2026-05-03 22:26 65.79844 -29.82802 40090 ft 462 kts 243°
2026-05-03 22:27 65.76512 -29.96212 40084 ft 462 kts 243°
2026-05-03 22:27 65.73171 -30.09565 40088 ft 462 kts 243°
2026-05-03 22:28 65.69822 -30.22874 40086 ft 461 kts 243°
2026-05-03 22:28 65.66462 -30.36140 40093 ft 461 kts 243°
2026-05-03 22:29 65.63089 -30.49378 40092 ft 461 kts 243°
2026-05-03 22:29 65.59710 -30.62560 40095 ft 461 kts 243°
2026-05-03 22:30 65.56031 -30.75313 40101 ft 469 kts 231°
2026-05-03 22:30 65.53540 -30.80481 40100 ft 477 kts 220°
2026-05-03 22:30 65.50647 -30.84577 40097 ft 486 kts 210°
2026-05-03 22:31 65.44070 -30.88751 40095 ft 504 kts 188°
2026-05-03 22:31 65.40537 -30.88510 40097 ft 513 kts 177°
2026-05-03 22:31 65.37018 -30.86625 40096 ft 522 kts 166°
2026-05-03 22:32 65.30270 -30.79858 40095 ft 526 kts 160°
2026-05-03 22:32 65.23578 -30.72809 40096 ft 525 kts 160°
2026-05-03 22:33 65.16863 -30.65936 40096 ft 525 kts 161°
2026-05-03 22:33 65.10183 -30.59191 40096 ft 524 kts 161°
2026-05-03 22:34 65.03461 -30.52443 40102 ft 524 kts 161°
2026-05-03 22:34 64.96751 -30.45738 40096 ft 523 kts 161°
2026-05-03 22:35 64.90042 -30.39069 40096 ft 523 kts 161°
2026-05-03 22:35 64.83331 -30.32435 40093 ft 523 kts 161°
2026-05-03 22:36 64.77748 -30.26942 40095 ft 522 kts 161°
2026-05-03 22:36 64.71033 -30.20368 40100 ft 522 kts 161°
2026-05-03 22:37 64.64323 -30.13834 40095 ft 522 kts 162°
2026-05-03 22:37 64.57613 -30.07336 40102 ft 522 kts 162°
2026-05-03 22:38 64.51097 -29.99798 40100 ft 530 kts 148°
2026-05-03 22:38 64.48247 -29.94330 40103 ft 535 kts 137°
2026-05-03 22:38 64.45801 -29.87812 40104 ft 538 kts 129°
2026-05-03 22:39 64.41204 -29.74111 40102 ft 538 kts 130°
2026-05-03 22:39 64.36576 -29.60513 40104 ft 538 kts 130°
2026-05-03 22:40 64.31917 -29.46977 40104 ft 538 kts 130°
2026-05-03 22:40 64.27254 -29.33518 40100 ft 538 kts 130°
2026-05-03 22:41 64.22574 -29.20087 40102 ft 538 kts 130°
2026-05-03 22:41 64.17882 -29.06704 40104 ft 537 kts 131°
2026-05-03 22:42 64.13216 -28.93469 40100 ft 537 kts 131°
2026-05-03 22:42 64.08499 -28.80169 40101 ft 537 kts 131°
2026-05-03 22:43 64.03779 -28.66939 40098 ft 537 kts 131°
2026-05-03 22:43 63.99049 -28.53760 40098 ft 537 kts 131°
2026-05-03 22:44 63.94314 -28.40647 40100 ft 536 kts 131°
2026-05-03 22:44 63.89551 -28.27531 40099 ft 536 kts 131°
2026-05-03 22:45 63.84803 -28.14533 40097 ft 536 kts 131°
2026-05-03 22:45 63.80033 -28.01550 40099 ft 536 kts 131°
2026-05-03 22:46 63.75278 -27.88684 40094 ft 535 kts 132°
2026-05-03 22:46 63.70490 -27.75803 40098 ft 535 kts 132°
2026-05-03 22:47 63.65694 -27.62974 40095 ft 535 kts 132°
2026-05-03 22:47 63.60883 -27.50178 40098 ft 535 kts 132°
2026-05-03 22:48 63.56069 -27.37449 40092 ft 534 kts 132°
2026-05-03 22:48 63.51246 -27.24769 40095 ft 534 kts 132°
2026-05-03 22:49 63.46412 -27.12131 40102 ft 534 kts 132°
2026-05-03 22:49 63.41844 -26.98999 40098 ft 536 kts 120°
2026-05-03 22:49 63.40287 -26.91438 40092 ft 537 kts 109°
2026-05-03 22:50 63.39370 -26.83373 40093 ft 536 kts 97°
2026-05-03 22:50 63.39129 -26.75108 40092 ft 533 kts 85°
2026-05-03 22:50 63.39570 -26.66928 40090 ft 529 kts 74°
2026-05-03 22:50 63.40651 -26.59257 40095 ft 523 kts 63°
2026-05-03 22:51 63.42232 -26.51988 40080 ft 521 kts 59°
2026-05-03 22:51 63.45141 -26.37094 40086 ft 525 kts 66°
2026-05-03 22:52 63.47345 -26.21497 40081 ft 527 kts 70°
2026-05-03 22:52 63.49271 -26.05638 40079 ft 529 kts 75°
2026-05-03 22:53 63.50013 -25.89211 40079 ft 534 kts 88°
2026-05-03 22:53 63.49988 -25.72570 40076 ft 534 kts 88°
2026-05-03 22:54 63.49983 -25.56048 40073 ft 532 kts 88°
2026-05-03 22:54 63.49949 -25.39319 40074 ft 534 kts 88°
2026-05-03 22:55 63.49890 -25.22775 40070 ft 534 kts 88°
2026-05-03 22:55 63.49811 -25.06162 40064 ft 534 kts 88°
2026-05-03 22:56 63.49713 -24.89504 40060 ft 534 kts 89°
2026-05-03 22:56 63.49596 -24.72890 40058 ft 534 kts 89°
2026-05-03 22:57 63.49460 -24.56351 40057 ft 534 kts 89°
2026-05-03 22:57 63.49663 -24.39780 40053 ft 531 kts 79°
2026-05-03 22:57 63.50435 -24.31727 40045 ft 524 kts 68°
2026-05-03 22:58 63.51805 -24.24270 39779 ft 514 kts 57°
2026-05-03 22:58 63.53718 -24.17582 39178 ft 506 kts 46°
2026-05-03 22:58 63.56110 -24.11910 38337 ft 496 kts 34°
2026-05-03 22:58 63.58889 -24.07477 37312 ft 483 kts 22°
2026-05-03 22:59 63.61908 -24.04462 36313 ft 469 kts 10°
2026-05-03 22:59 63.65040 -24.02946 35349 ft 452 kts 358°
2026-05-03 22:59 63.68124 -24.02954 34420 ft 435 kts 346°
2026-05-03 22:59 63.71005 -24.04411 33337 ft 419 kts 334°
2026-05-03 23:00 63.73618 -24.07188 31806 ft 414 kts 323°
2026-05-03 23:00 63.75809 -24.11227 30590 ft 409 kts 309°
2026-05-03 23:00 63.77458 -24.16355 29959 ft 398 kts 297°
2026-05-03 23:00 63.78464 -24.22090 29348 ft 391 kts 285°
2026-05-03 23:01 63.78806 -24.28180 28697 ft 390 kts 272°
2026-05-03 23:01 63.78462 -24.34280 28016 ft 393 kts 260°
2026-05-03 23:01 63.77443 -24.40065 27385 ft 399 kts 247°
2026-05-03 23:01 63.75795 -24.45198 26739 ft 408 kts 234°
2026-05-03 23:02 63.73698 -24.49556 26102 ft 412 kts 228°
2026-05-03 23:02 63.71541 -24.53769 25458 ft 403 kts 233°
2026-05-03 23:02 63.69845 -24.58635 24844 ft 387 kts 246°
2026-05-03 23:02 63.68737 -24.64043 24247 ft 376 kts 256°
2026-05-03 23:03 63.68059 -24.69666 23628 ft 368 kts 263°
2026-05-03 23:03 63.67553 -24.75275 22900 ft 367 kts 259°
2026-05-03 23:03 63.66496 -24.80559 22217 ft 374 kts 244°
2026-05-03 23:03 63.64787 -24.85050 21533 ft 384 kts 229°
2026-05-03 23:04 63.62552 -24.88358 20872 ft 397 kts 213°
2026-05-03 23:04 63.59883 -24.90247 20200 ft 409 kts 197°
2026-05-03 23:04 63.57007 -24.90440 19551 ft 420 kts 181°
2026-05-03 23:04 63.54145 -24.88859 18902 ft 430 kts 164°
2026-05-03 23:05 63.51522 -24.85562 18266 ft 436 kts 147°
2026-05-03 23:05 63.49369 -24.80766 17578 ft 438 kts 129°
2026-05-03 23:05 63.47876 -24.74868 16908 ft 435 kts 111°
2026-05-03 23:05 63.47171 -24.68355 16209 ft 428 kts 93°
2026-05-03 23:06 63.47316 -24.61818 15579 ft 416 kts 73°
2026-05-03 23:06 63.48213 -24.55878 15455 ft 411 kts 65°
2026-05-03 23:06 63.49004 -24.49655 15351 ft 417 kts 74°
2026-05-03 23:06 63.49551 -24.43298 15244 ft 417 kts 77°
2026-05-03 23:07 63.49819 -24.36802 15151 ft 419 kts 85°
2026-05-03 23:07 63.49882 -24.30284 15052 ft 419 kts 87°
2026-05-03 23:07 63.49892 -24.23760 15051 ft 419 kts 88°
2026-05-03 23:07 63.50009 -24.17262 15047 ft 416 kts 78°
2026-05-03 23:08 63.50839 -24.11130 15055 ft 408 kts 59°
2026-05-03 23:08 63.52398 -24.05956 15049 ft 395 kts 40°
2026-05-03 23:08 63.54510 -24.02230 15049 ft 380 kts 21°
2026-05-03 23:08 63.56946 -24.00276 15051 ft 365 kts
2026-05-03 23:09 63.59417 -24.00250 15051 ft 349 kts 343°
2026-05-03 23:09 63.61694 -24.01862 15049 ft 341 kts 332°
2026-05-03 23:09 63.63907 -24.03818 15050 ft 342 kts 333°
2026-05-03 23:09 63.66025 -24.06129 15048 ft 336 kts 323°
2026-05-03 23:10 63.67821 -24.09305 15051 ft 330 kts 311°
2026-05-03 23:10 63.69221 -24.13335 15051 ft 327 kts 298°
2026-05-03 23:10 63.70091 -24.18039 15043 ft 325 kts 284°
2026-05-03 23:10 63.70341 -24.23184 15048 ft 345 kts 270°
2026-05-03 23:11 63.70089 -24.28690 15051 ft 351 kts 266°
2026-05-03 23:11 63.69808 -24.34009 15054 ft 331 kts 266°
2026-05-03 23:11 63.69541 -24.39095 15058 ft 328 kts 266°
2026-05-03 23:11 63.69279 -24.44230 15059 ft 331 kts 266°
2026-05-03 23:12 63.69015 -24.49372 15057 ft 330 kts 266°
2026-05-03 23:12 63.68676 -24.54497 15050 ft 333 kts 259°
2026-05-03 23:12 63.67746 -24.59342 15057 ft 342 kts 243°
2026-05-03 23:12 63.66177 -24.63450 15015 ft 352 kts 227°
2026-05-03 23:13 63.64065 -24.66402 14720 ft 365 kts 209°
2026-05-03 23:13 63.61558 -24.67723 14287 ft 378 kts 190°
2026-05-03 23:13 63.58910 -24.67145 13730 ft 389 kts 170°
2026-05-03 23:13 63.56371 -24.64885 13129 ft 392 kts 160°
2026-05-03 23:14 63.53904 -24.62299 12558 ft 389 kts 159°
2026-05-03 23:14 63.51459 -24.59721 11992 ft 386 kts 160°
2026-05-03 23:14 63.49111 -24.56990 11440 ft 387 kts 153°
2026-05-03 23:14 63.46908 -24.53544 10901 ft 385 kts 147°
2026-05-03 23:15 63.44749 -24.50006 10446 ft 380 kts 147°
2026-05-03 23:15 63.42616 -24.46542 10339 ft 382 kts 148°
2026-05-03 23:15 63.40446 -24.43049 10242 ft 383 kts 148°
2026-05-03 23:15 63.38295 -24.39580 10135 ft 381 kts 146°
2026-05-03 23:16 63.36456 -24.35307 10059 ft 386 kts 125°
2026-05-03 23:16 63.35354 -24.29849 10069 ft 388 kts 103°
2026-05-03 23:16 63.35136 -24.23913 10060 ft 384 kts 81°
2026-05-03 23:16 63.35823 -24.18267 10060 ft 375 kts 59°
2026-05-03 23:17 63.37265 -24.13658 10074 ft 364 kts 41°
2026-05-03 23:17 63.39039 -24.09656 10047 ft 362 kts 39°
2026-05-03 23:17 63.40767 -24.05531 10048 ft 365 kts 43°
2026-05-03 23:17 63.42371 -24.01108 10052 ft 368 kts 47°
2026-05-03 23:18 63.43876 -23.96457 10050 ft 370 kts 49°
2026-05-03 23:18 63.45322 -23.91693 10046 ft 370 kts 51°
2026-05-03 23:18 63.46745 -23.86883 10048 ft 371 kts 51°
2026-05-03 23:18 63.48162 -23.82053 10047 ft 371 kts 51°
2026-05-03 23:19 63.49097 -23.78865 10002 ft 370 kts 51°
2026-05-03 23:19 63.50499 -23.74077 9881 ft 362 kts 51°
2026-05-03 23:19 63.51856 -23.69436 9751 ft 349 kts 51°
2026-05-03 23:19 63.53158 -23.64976 9588 ft 334 kts 50°
2026-05-03 23:20 63.54403 -23.60714 9452 ft 319 kts 50°
2026-05-03 23:20 63.55591 -23.56641 9240 ft 306 kts 50°
2026-05-03 23:20 63.56747 -23.52693 8820 ft 302 kts 50°
2026-05-03 23:20 63.57896 -23.48773 8368 ft 298 kts 50°
2026-05-03 23:21 63.59029 -23.44895 7918 ft 295 kts 50°
2026-05-03 23:21 63.60146 -23.41058 7476 ft 292 kts 51°
2026-05-03 23:21 63.61251 -23.37251 7017 ft 289 kts 51°
2026-05-03 23:21 63.62342 -23.33483 6581 ft 285 kts 51°
2026-05-03 23:22 63.64489 -23.26052 5585 ft 280 kts 51°
2026-05-03 23:22 63.65542 -23.22398 5113 ft 277 kts 52°
2026-05-03 23:22 63.66582 -23.18785 4591 ft 274 kts 52°
2026-05-03 23:23 63.67612 -23.15198 4107 ft 271 kts 52°
2026-05-03 23:23 63.68624 -23.11675 3761 ft 262 kts 52°
2026-05-03 23:23 63.69630 -23.08164 3666 ft 270 kts 52°
2026-05-03 23:23 63.70643 -23.04627 3569 ft 267 kts 52°
2026-05-03 23:24 63.71648 -23.01104 3528 ft 267 kts 52°
2026-05-03 23:24 63.72652 -22.97578 3529 ft 266 kts 53°
2026-05-03 23:24 63.73655 -22.94051 3528 ft 268 kts 53°
2026-05-03 23:24 63.74660 -22.90515 3523 ft 267 kts 53°
2026-05-03 23:25 63.75671 -22.87004 3524 ft 266 kts 52°
2026-05-03 23:25 63.76700 -22.83510 3525 ft 267 kts 52°
2026-05-03 23:25 63.77719 -22.80024 3526 ft 266 kts 52°
2026-05-03 23:25 63.78733 -22.76505 3524 ft 267 kts 53°
2026-05-03 23:26 63.79717 -22.73040 3517 ft 253 kts 53°
2026-05-03 23:26 63.80614 -22.69841 3519 ft 235 kts 53°
2026-05-03 23:26 63.80906 -22.68795 3515 ft 229 kts 53°
2026-05-03 23:26 63.81064 -22.68228 3516 ft 226 kts 53°
2026-05-03 23:27 63.81900 -22.65244 3528 ft 232 kts 53°
2026-05-03 23:27 63.82961 -22.62420 3515 ft 237 kts 30°
2026-05-03 23:27 63.84439 -22.60994 3460 ft 227 kts
2026-05-03 23:27 63.86061 -22.60576 3272 ft 244 kts 358°
2026-05-03 23:28 63.87756 -22.60546 3174 ft 243 kts 356°
2026-05-03 23:28 63.89399 -22.60533 3038 ft 219 kts 356°
2026-05-03 23:28 63.90773 -22.60535 2748 ft 181 kts 356°
2026-05-03 23:28 63.91989 -22.60547 2187 ft 171 kts 356°
2026-05-03 23:29 63.93166 -22.60549 1537 ft 167 kts 355°
2026-05-03 23:29 63.94292 -22.60541 1270 ft 166 kts 355°
2026-05-03 23:29 63.95476 -22.60552 824 ft 168 kts 358°
2026-05-03 23:29 63.96647 -22.60556 207 ft 163 kts
2026-05-03 23:30 63.97605 -22.60548 164 ft 95 kts
2026-05-03 23:30 63.97967 -22.60550 165 ft 34 kts 360°
2026-05-03 23:30 63.98253 -22.60551 170 ft 57 kts
2026-05-03 23:30 63.98649 -22.60529 171 ft 50 kts
2026-05-03 23:31 63.98736 -22.60504 170 ft 1 kts 35°
2026-05-03 23:31 63.98720 -22.60416 171 ft 8 kts 129°
2026-05-03 23:31 63.98671 -22.60315 172 ft 16 kts 135°
2026-05-03 23:31 63.98508 -22.59925 176 ft 32 kts 124°
2026-05-03 23:32 63.98505 -22.59619 178 ft 18 kts 88°
2026-05-03 23:32 63.98491 -22.59340 181 ft 17 kts 118°
2026-05-03 23:32 63.98390 -22.59206 182 ft 17 kts 155°
2026-05-03 23:32 63.98267 -22.59088 181 ft 21 kts 157°
2026-05-03 23:33 63.98122 -22.58952 179 ft 24 kts 158°
2026-05-03 23:33 63.97952 -22.58805 177 ft 27 kts 173°
2026-05-03 23:33 63.97771 -22.58939 173 ft 29 kts 200°
2026-05-03 23:33 63.97619 -22.59066 170 ft 9 kts 199°
2026-05-03 23:34 63.97530 -22.59137 168 ft 20 kts 199°
2026-05-03 23:34 63.97386 -22.59251 165 ft 24 kts 199°
2026-05-03 23:34 63.97286 -22.59326 163 ft 1 kts 188°
2026-05-03 23:34 63.97242 -22.59235 163 ft 0 kts 100°